sat.trackr.live / text

‹ back to catalog

ONEWEB-0336

NORAD 49202 · 2021-083S

PAYLOAD ACTIVE UNKNOWN

§ Identity

Operator
Country
UK
Launch date
2021-09-14
Launch site
TYMSC
Launch vehicle
Mass (kg)
RCS (m²)

Purposes: comms

External: N2YO · Heavens-Above · Gunter

§ Orbital elements

Epoch: 2026-05-25T00:35:16.116576Z

Period
109.63 min
Inclination
87.8939°
Eccentricity
0.0002128
Mean motion
13.13468826 rev/d
Perigee alt
1,208.2 km
Apogee alt
1,211.4 km
Semi-major
7,587.9 km
B*
7.5655e-4
RAAN
324.8430°
Arg perigee
100.2447°
Mean anomaly
259.8923°
Rev number
22,787

§ Raw data

ONEWEB-03361 49202U 21083S   26145.02449209  .00000289  00000+0  75655-3 0  99982 49202  87.8939 324.8430 0002128 100.2447 259.8923 13.13468826227874

JSON: /api/v1/satellites/49202 · /tle

For live sub-satellite position, see the globe view (requires WebGL).

§ Visibility from observer

Set your observer location to see the next 7 days of passes ≥ 10°. The values pass through the URL so the page stays shareable.

No JS? Fill the form by hand. The geolocation button needs JavaScript.